[[{"header":{"parameterUnit":"m.s-1","parameterCategory":1,"la1":30.2991,"la2":30.254,"lo1":-89.0895,"lo2":-89.0444,"dy":0.0017,"dx":0.0017,"nx":28,"ny":28,"refTime":"2024-11-27T03:00:00:Z","depth":0,"parameterNumber":2,"parameterNumberName":"U-component_of_WINDS"},"data":[0,0,0,0,0,0,0,0,0,0,0,0,0,0,0,0,0,0,0,0,0,0,0,0,0,0,0,0,0,0,0,0,0,0,0,0,0,0,0,0,0,0,0,0,0,0,0,0,0,0,0,0,0,0,0,0,0,0,-2.1657,-2.1658,0,-2.1757,-2.1758,-2.1759,-2.1765,-2.1764,-2.1763,-2.1762,-2.1865,-2.1869,-2.1872,0,0,0,0,0,0,0,0,0,0,0,0,0,-2.1472,-2.1475,-2.1657,-2.1658,-2.1659,-2.1757,-2.1758,-2.176,-2.1766,-2.1764,-2.1763,-2.1762,-2.1864,-2.1868,-2.1873,0,0,0,0,0,0,0,0,0,0,0,0,0,-2.156,-2.1476,-2.1657,-2.1674,-2.1677,-2.1757,-2.1758,-2.176,-2.1766,-2.1764,-2.1763,-2.1761,-2.1862,-2.1868,-2.1873,-2.1943,0,0,-2.1891,-2.1893,0,0,0,0,0,0,0,0,-2.1555,-2.1567,-2.167,-2.1673,-2.1676,-2.1747,-2.1731,-2.1821,-2.1766,-2.1732,-2.1762,-2.176,-2.1827,-2.1835,-2.1858,-2.1947,-2.1952,-2.1891,-2.1895,-2.1897,-2.1899,0,0,0,0,0,0,0,-2.1549,-2.1562,-2.1697,-2.1672,-2.1675,-2.1677,-2.1688,-2.1748,-2.1788,-2.1735,-2.1736,-2.1747,-2.1828,-2.1853,-2.1861,-2.1953,-2.1891,-2.1896,-2.19,-2.1902,-2.2105,-2.2107,0,0,0,0,0,0,-2.1539,-2.1557,-2.1693,-2.17,-2.161,-2.1682,-2.1694,-2.1726,-2.1787,-2.1795,-2.1749,-2.1747,-2.1844,-2.1854,-2.1864,-2.1949,-2.1897,-2.1902,-2.1906,-2.2103,-2.2105,-2.2108,0,0,0,0,0,0,-2.1535,-2.1551,-2.1689,-2.1629,-2.1646,-2.1687,-2.1723,-2.1729,-2.1753,-2.1798,-2.1805,-2.1766,-2.1843,-2.1856,-2.1923,-2.1953,-2.1905,-2.191,-2.2101,-2.2104,-2.2106,-2.212,0,0,0,0,0,0,-2.153,-2.155,-2.1576,-2.1629,-2.165,-2.1746,-2.1725,-2.1732,-2.1763,-2.1762,-2.1816,-2.1823,-2.1842,-2.1915,-2.1929,-2.196,-2.1915,-2.2098,-2.2102,-2.2106,-2.2117,-2.2123,-2.2128,0,0,0,0,0,-2.1523,-2.1576,-2.1578,-2.1594,-2.1684,-2.1748,-2.176,-2.1781,-2.1765,-2.1792,-2.1821,-2.1822,-2.1948,-2.1921,-2.1937,-2.1971,-2.2096,-2.2101,-2.2105,-2.2115,-2.2122,-2.2128,0,0,0,0,0,0,-2.1526,-2.1583,-2.1586,-2.1657,-2.1698,-2.1749,-2.1784,-2.1788,-2.1834,-2.1831,-2.1855,-2.1867,-2.1933,-2.1959,-2.1929,-2.2041,-2.202,-2.2028,-2.2022,-2.2029,-2.2035,-2.2027,-2.1919,0,0,0,0,0,-2.1535,-2.1582,-2.163,-2.1689,-2.1709,-2.1743,-2.1772,-2.1785,-2.1827,-2.1845,-2.1878,-2.192,-2.1969,-2.2001,-2.2048,-2.2121,-2.2133,-2.2152,-2.2158,-2.2162,-2.2168,-2.2209,-2.2218,-2.2122,-2.2122,-2.2122,0,0,-2.1554,-2.1591,-2.162,-2.169,-2.1723,-2.1772,-2.1757,-2.1809,-2.1846,-2.1853,-2.1918,-2.1944,-2.1992,-2.2062,-2.2095,-2.2086,-2.2197,-2.2168,-2.2171,-2.2175,-2.2214,-2.2223,-2.2231,-2.2125,-2.2125,-2.2124,0,0,-2.1613,-2.1646,-2.1699,-2.1732,-2.1782,-2.1804,-2.1817,-2.1868,-2.1885,-2.1951,-2.1957,-2.2001,-2.2085,-2.2119,-2.2147,-2.222,-2.2222,-2.2235,-2.2264,-2.2303,-2.231,-2.2317,-2.2343,-2.2352,-2.2241,-2.2241,-2.2241,0,-2.163,-2.1703,-2.1725,-2.1777,-2.1808,-2.1817,-2.187,-2.1901,-2.1964,-2.1985,-2.1974,-2.208,-2.2113,-2.2191,-2.2209,-2.2232,-2.2247,-2.2228,-2.2308,-2.2315,-2.2321,-2.2346,-2.2355,-2.2243,-2.2242,-2.2242,-2.2242,0,-2.1722,-2.1773,-2.1809,-2.187,-2.1905,-2.1957,-2.1987,-2.202,-2.203,-2.2054,-2.2121,-2.2161,-2.2217,-2.2236,-2.2247,-2.2316,-2.2309,-2.2303,-2.2282,-2.2331,-2.2355,-2.2364,-2.2244,-2.2244,-2.2244,-2.2243,0,0,-2.1785,-2.1857,-2.187,-2.1897,-2.1953,-2.1993,-2.2046,-2.2101,-2.2129,-2.2172,-2.2217,-2.2288,-2.2283,-2.2315,-2.2329,-2.2363,-2.2418,-2.2353,-2.2354,-2.2363,-2.2497,-2.2501,-2.2511,-2.242,-2.2422,-2.2424,-2.2493,0,-2.185,-2.1944,-2.1965,-2.2046,-2.2093,-2.2103,-2.2149,-2.2188,-2.2212,-2.2256,-2.2282,-2.2332,-2.2321,-2.234,-2.2375,-2.2404,-2.2445,-2.24,-2.2462,-2.2464,-2.2449,-2.2524,-2.2528,-2.2591,-2.2502,-2.2504,-2.2505,0,-2.1938,-2.1983,-2.2069,-2.2118,-2.2139,-2.218,-2.2232,-2.2274,-2.2319,-2.2334,-2.237,-2.2381,-2.2436,-2.2414,-2.2491,-2.2459,-2.2486,-2.2504,-2.2507,-2.2513,-2.2487,-2.2531,-2.2612,-2.2621,-2.252,-2.2519,-2.2518,0,-2.1975,-2.2057,-2.2119,-2.2142,-2.2202,-2.2231,-2.2257,-2.23,-2.2332,-2.2377,-2.2398,-2.2449,-2.2477,-2.2517,-2.2542,-2.2523,-2.2617,-2.2596,-2.263,-2.263,-2.2649,-2.2647,-2.2735,-2.2668,-2.2668,-2.2667,-2.2667,0,-2.2044,-2.2096,-2.2136,-2.2174,-2.2232,-2.2257,-2.2314,-2.234,-2.2379,-2.2422,-2.2434,-2.2474,-2.2505,-2.255,-2.2569,-2.263,-2.2643,-2.2656,-2.266,-2.2655,-2.2653,-2.2672,-2.2668,-2.267,-2.2669,-2.2669,-2.2669,0,-2.2095,-2.2123,-2.2191,-2.2242,-2.2256,-2.2297,-2.2341,-2.2378,-2.2403,-2.2457,-2.2472,-2.251,-2.2563,-2.2592,-2.2659,-2.2672,-2.274,-2.2742,-2.2724,-2.2726,-2.2758,-2.2755,-2.286,-2.2875,-2.2799,-2.28,-2.28,0,-2.2137,-2.2177,-2.2232,-2.2262,-2.2289,-2.2337,-2.2369,-2.2395,-2.2428,-2.2482,-2.2513,-2.2567,-2.2611,-2.2696,-2.273,-2.2781,-2.2785,-2.2818,-2.2792,-2.2785,-2.2784,-2.2781,-2.2785,-2.2822,-2.2823,-2.2824,-2.2824,0,-2.2209,-2.2221,-2.2266,-2.2318,-2.2355,-2.2397,-2.2438,-2.2462,-2.2494,-2.2531,-2.2586,-2.262,-2.2688,-2.2742,-2.2796,-2.2823,-2.2829,-2.2832,-2.2843,-2.2836,-2.2824,-2.2831,-2.2736,-2.2829,-2.2829,-2.2828,-2.2828,-2.2828,-2.2256,-2.2292,-2.2336,-2.2387,-2.242,-2.2458,-2.2496,-2.2525,-2.2571,-2.2628,-2.2641,-2.2698,-2.2743,-2.2816,-2.2845,-2.289,-2.2884,-2.2899,-2.2903,-2.2906,-2.2907,-2.2818,-2.2901,-2.29,-2.29,-2.29,-2.29,0,-2.2327,-2.2356,-2.2403,-2.246,-2.25,-2.2502,-2.2548,-2.2581,-2.2631,-2.2672,-2.2716,-2.2778,-2.283,-2.2868,-2.2922,-2.2951,-2.2955,-2.2964,-2.2961,-2.2967,-2.291,-2.2895,-2.2959,-2.2959,-2.2959,-2.2959,-2.2959,-2.2959,-2.2369,-2.243,-2.2448,-2.2525,-2.2554,-2.261,-2.2636,-2.2671,-2.2704,-2.2774,-2.2817,-2.2841,-2.2881,-2.2937,-2.2985,-2.2995,-2.3014,-2.3022,-2.3032,-2.2978,-2.2971,-2.2965,-2.2951,-2.3026,-2.3026,-2.3085,-2.3086,-2.3086]},{"header":{"parameterUnit":"m.s-1","parameterCategory":1,"la1":30.2991,"la2":30.254,"lo1":-89.0895,"lo2":-89.0444,"dy":0.0017,"dx":0.0017,"nx":28,"ny":28,"refTime":"2024-11-27T03:00:00:Z","depth":0,"parameterNumber":3,"parameterNumberName":"V-component_of_WINDS"},"data":[0,0,0,0,0,0,0,0,0,0,0,0,0,0,0,0,0,0,0,0,0,0,0,0,0,0,0,0,0,0,0,0,0,0,0,0,0,0,0,0,0,0,0,0,0,0,0,0,0,0,0,0,0,0,0,0,0,0,0.8829,0.8829,0,0.8779,0.8778,0.8778,0.8737,0.8736,0.8736,0.8735,0.8682,0.8681,0.868,0,0,0,0,0,0,0,0,0,0,0,0,0,0.8886,0.8885,0.8829,0.8829,0.8828,0.8779,0.8778,0.8778,0.8737,0.8736,0.8736,0.8735,0.8682,0.8681,0.868,0,0,0,0,0,0,0,0,0,0,0,0,0,0.8851,0.8885,0.8829,0.8802,0.8799,0.8779,0.8778,0.8777,0.8737,0.8736,0.8735,0.8735,0.8682,0.8681,0.8679,0.8683,0,0,0.8675,0.8674,0,0,0,0,0,0,0,0,0.8853,0.8849,0.8806,0.8803,0.88,0.8763,0.8779,0.8746,0.8737,0.876,0.8735,0.8735,0.8709,0.8705,0.8697,0.868,0.8678,0.8674,0.8674,0.8673,0.8672,0,0,0,0,0,0,0,0.8856,0.8851,0.8809,0.8806,0.8802,0.8791,0.8785,0.8772,0.8739,0.8758,0.8755,0.875,0.8707,0.8699,0.8696,0.8677,0.8675,0.8673,0.8672,0.8672,0.8657,0.8658,0,0,0,0,0,0,0.8863,0.8853,0.8811,0.8808,0.8826,0.879,0.8784,0.8776,0.8739,0.8733,0.875,0.8748,0.8702,0.8698,0.8694,0.8694,0.8673,0.8671,0.8671,0.8657,0.8657,0.8658,0,0,0,0,0,0,0.8864,0.8859,0.8813,0.883,0.8823,0.879,0.8781,0.8775,0.8767,0.8733,0.8727,0.8748,0.8701,0.8696,0.8685,0.8691,0.8671,0.8669,0.8656,0.8657,0.8658,0.8695,0,0,0,0,0,0,0.8866,0.886,0.8862,0.883,0.8822,0.8807,0.8782,0.8775,0.8764,0.8761,0.8729,0.8723,0.87,0.8688,0.8684,0.8689,0.8668,0.8655,0.8657,0.8658,0.8693,0.8696,0.87,0,0,0,0,0,0.8868,0.8874,0.8862,0.8857,0.8824,0.8807,0.8802,0.8776,0.8765,0.8766,0.8744,0.8724,0.8691,0.8687,0.8682,0.8687,0.8655,0.8656,0.8657,0.8691,0.8696,0.87,0,0,0,0,0,0,0.8907,0.887,0.8856,0.8852,0.8833,0.88,0.8801,0.8783,0.8766,0.8763,0.8731,0.8724,0.8717,0.8701,0.8697,0.8687,0.867,0.8671,0.8698,0.8702,0.8705,0.8709,0.8667,0,0,0,0,0,0.8916,0.8906,0.8873,0.8873,0.8864,0.8834,0.8826,0.8807,0.8786,0.8778,0.8755,0.8734,0.8719,0.8709,0.8694,0.869,0.8681,0.869,0.8694,0.8697,0.8698,0.8692,0.8695,0.8662,0.8662,0.8662,0,0,0.8933,0.8911,0.8907,0.888,0.8864,0.8853,0.8828,0.8818,0.8809,0.8776,0.8764,0.8747,0.8721,0.8714,0.8709,0.87,0.8705,0.8699,0.8702,0.87,0.8694,0.8697,0.87,0.8663,0.8663,0.8663,0,0,0.8958,0.8941,0.8939,0.8922,0.8897,0.8876,0.8876,0.8845,0.8832,0.882,0.8794,0.8783,0.8758,0.874,0.8728,0.8744,0.8725,0.874,0.8759,0.8754,0.8756,0.8759,0.8763,0.8765,0.8741,0.8741,0.8741,0,0.8982,0.8966,0.8939,0.8931,0.8919,0.8888,0.8884,0.8869,0.884,0.8832,0.8822,0.8789,0.877,0.8756,0.876,0.8752,0.8749,0.8744,0.8759,0.876,0.8762,0.8766,0.8768,0.8743,0.8743,0.8742,0.8742,0,0.8996,0.8986,0.8986,0.8959,0.8947,0.8941,0.8912,0.8903,0.8885,0.8865,0.8852,0.8828,0.8805,0.8801,0.8784,0.8785,0.878,0.8765,0.8748,0.8767,0.877,0.8772,0.8745,0.8745,0.8744,0.8744,0,0,0.9046,0.9003,0.9003,0.899,0.8959,0.8949,0.8941,0.892,0.8912,0.8892,0.8883,0.8862,0.8847,0.8833,0.8813,0.8809,0.8822,0.8794,0.8793,0.8799,0.8819,0.883,0.8832,0.8809,0.8809,0.8809,0.8821,0,0.9065,0.905,0.9024,0.9016,0.9005,0.8974,0.8967,0.8946,0.8927,0.8913,0.8891,0.8876,0.8859,0.885,0.8845,0.8821,0.8825,0.882,0.8798,0.8798,0.8805,0.8834,0.8846,0.8858,0.8822,0.8822,0.8822,0,0.9087,0.9069,0.906,0.9028,0.9022,0.9016,0.8993,0.8981,0.8956,0.8942,0.8926,0.8904,0.8892,0.8876,0.8858,0.8855,0.8844,0.8831,0.8831,0.8827,0.8811,0.883,0.8862,0.8863,0.8824,0.8824,0.8824,0,0.9122,0.9095,0.9086,0.9076,0.9039,0.9035,0.9019,0.8994,0.8982,0.8962,0.8953,0.8932,0.892,0.8903,0.8875,0.8867,0.8858,0.8841,0.8845,0.8845,0.8844,0.8844,0.8874,0.8839,0.8839,0.8839,0.8839,0,0.9146,0.9141,0.9101,0.9096,0.9089,0.9059,0.9052,0.9033,0.9011,0.8999,0.8972,0.8961,0.8925,0.891,0.8888,0.8875,0.887,0.8857,0.8851,0.8859,0.886,0.8851,0.8849,0.8839,0.8839,0.8839,0.8839,0,0.9184,0.9158,0.9145,0.9111,0.9102,0.9099,0.9069,0.9061,0.904,0.9026,0.9021,0.8987,0.8967,0.8938,0.891,0.8894,0.8884,0.8875,0.8893,0.8889,0.8894,0.8893,0.8917,0.8918,0.8884,0.8885,0.8885,0,0.9201,0.9197,0.9162,0.9153,0.9138,0.9124,0.9112,0.9081,0.9069,0.904,0.9035,0.9014,0.8995,0.8965,0.8937,0.8914,0.8903,0.8913,0.89,0.8907,0.8902,0.8902,0.8901,0.8916,0.8917,0.8917,0.8918,0,0.9233,0.922,0.9204,0.9183,0.9169,0.9151,0.9131,0.9125,0.909,0.9077,0.9057,0.9043,0.9013,0.8992,0.8965,0.8947,0.8926,0.8922,0.8921,0.8929,0.8939,0.8932,0.89,0.8922,0.8921,0.8921,0.8921,0.8921,0.9261,0.9255,0.9229,0.9212,0.9193,0.9175,0.9166,0.9143,0.9126,0.9101,0.9083,0.9064,0.9037,0.8999,0.8982,0.8965,0.8956,0.8955,0.8955,0.8955,0.8957,0.8943,0.896,0.896,0.896,0.8959,0.8959,0,0.929,0.9272,0.9256,0.923,0.9215,0.9197,0.9174,0.9163,0.9147,0.9123,0.9105,0.9081,0.906,0.9029,0.9005,0.8997,0.8986,0.8991,0.8991,0.8987,0.8968,0.897,0.9,0.9,0.9,0.9,0.9,0.9,0.9304,0.9293,0.9276,0.9254,0.9236,0.9217,0.9205,0.9187,0.9169,0.9143,0.9125,0.9106,0.9079,0.9052,0.9031,0.9022,0.9014,0.9022,0.901,0.8992,0.8989,0.8985,0.8987,0.9021,0.9021,0.9031,0.9031,0.9031]}]]